Location: Foligno
(42.9600°N, 12.7050°E)
Time: 17:41:12
(UTC+02:00)

ISS - Pass Details

Date: 02 June 2020
Orbit: 417 x 420 km, 51.6° (Epoch: 26 May)

Event Time Altitude Azimuth Distance (km) Brightness Sun altitude
Rises 22:24:58 0° 291° (WNW) 2,363 1.1 -14.8°
Reaches altitude 10° 22:27:32 10° 271° (W) 1,495 -0.4 -15.1°
Maximum altitude 22:29:51 18° 227° (SW) 1,115 -1.7 -15.3°
Enters shadow 22:30:53 16° 204° (SSW) 1,197 -1.7 -15.4°
